Weather History for Saranac Lake, NY

Change the Weather History Date:

Thursday, March 14, 2013

  Actual Average Record
Temperature  
Mean Temperature 17 °F 23 °F  
Max Temperature 24 °F 36 °F 67 °F (1990)
Min Temperature 10 °F 11 °F -18 °F (2003)
Degree Days  
Heating Degree Days 48 42  
Month to date heating degree days 538 619  
Since 1 July heating degree days 6795 7324  
Cooling Degree Days 0 0  
Month to date cooling degree days 0 0  
Year to date cooling degree days 0 0  
Moisture  
Dew Point 8 °F    
Average Humidity 75    
Maximum Humidity 88    
Minimum Humidity 61    
Precipitation  
Precipitation 0.01 in 0.07 in 1.86 in (1978)
Month to date precipitation 0.51 0.84  
Year to date precipitation 2.40 4.58  
Sea Level Pressure  
Sea Level Pressure 29.77 in    
Wind  
Wind Speed 8 mph (West)    
Max Wind Speed 17 mph    
Max Gust Speed 26 mph    
Visibility 4 miles    
Events Snow    
T = Trace of Precipitation, MM = Missing Value Source: NWS Daily Summary

Daily Weather History Graph

Daily Weather History Graph

Search for Another Location

Airport:

Trip Planner

Search our weather history database for the weather conditions in past years. The results will help you decide how hot, cold, wet, or windy it might be!

Date:

Astronomy

Mar. 14, 2013 Rise Set
Actual Time 7:10 AM EDT 7:01 PM EDT
Civil Twilight 6:41 AM EDT 7:30 PM EDT
Nautical Twilight 6:07 AM EDT 8:04 PM EDT
Astronomical Twilight 5:33 AM EDT 8:39 PM EDT
Moon 8:14 AM EDT (3/14) 10:25 PM EDT (3/14)
Length of Visible Light 12h 49m
Length of Day
11h 51m
Waxing Crescent, 9% of the Moon is Illuminated
Mar 14
Waxing Crescent
Mar 19
First Quarter
Mar 27
Full
Apr 3
Last Quarter
Apr 10
New

Hourly Weather History & Observations

Time (EDT) Temp. Windchill Dew Point Humidity Pressure Visibility Wind Dir Wind Speed Gust Speed Precip Events Conditions
12:51 AM 24.1 °F 13.7 °F 17.1 °F 75% 29.75 in 10.0 mi SW 10.4 mph - N/A   Mostly Cloudy
1:34 AM 23.0 °F 14.7 °F 17.6 °F 80% 29.68 in 10.0 mi SW 6.9 mph - N/A   Scattered Clouds
1:51 AM 23.0 °F 15.8 °F 17.1 °F 78% 29.74 in 8.0 mi SW 5.8 mph - 0.00 in Snow Light Snow
2:11 AM 23.0 °F 14.7 °F 17.6 °F 80% 29.67 in 2.5 mi SW 6.9 mph - 0.00 in Snow Light Snow
2:31 AM 23.0 °F 14.7 °F 19.4 °F 86% 29.67 in 1.2 mi SSW 6.9 mph - 0.01 in Snow Light Snow
2:51 AM 23.0 °F 14.7 °F 19.9 °F 88% 29.72 in 2.0 mi SSW 6.9 mph - 0.01 in Snow Light Snow
2:54 AM 23.0 °F 13.1 °F 19.4 °F 86% 29.66 in 4.0 mi SSW 9.2 mph - 0.00 in Snow Light Snow
3:00 AM 23.0 °F 12.4 °F 19.4 °F 86% 29.66 in 2.5 mi SW 10.4 mph - 0.00 in Snow Light Snow
3:07 AM 23.0 °F 12.4 °F 19.4 °F 86% 29.66 in 1.5 mi SW 10.4 mph 21.9 mph 0.00 in Snow Light Snow
3:21 AM 21.2 °F 10.1 °F 17.6 °F 86% 29.66 in 2.5 mi WSW 10.4 mph 21.9 mph 0.00 in Snow Light Snow
3:29 AM 21.2 °F 11.7 °F 17.6 °F 86% 29.66 in 4.0 mi WSW 8.1 mph 19.6 mph 0.00 in Snow Light Snow
4:36 AM 21.2 °F 12.6 °F 15.8 °F 80% 29.66 in 10.0 mi WSW 6.9 mph 19.6 mph N/A   Overcast
4:51 AM 21.0 °F 10.6 °F 15.1 °F 78% 29.73 in 8.0 mi WSW 9.2 mph 19.6 mph N/A   Overcast
5:34 AM 19.4 °F 6.0 °F 10.4 °F 68% 29.67 in 10.0 mi WSW 13.8 mph 20.7 mph 0.00 in   Overcast
5:51 AM 19.0 °F 9.0 °F 10.9 °F 71% 29.74 in 4.0 mi WSW 8.1 mph 21.9 mph 0.00 in Snow Light Snow
5:58 AM 19.4 °F 7.9 °F 10.4 °F 68% 29.68 in 4.0 mi West 10.4 mph 16.1 mph 0.00 in Snow Light Snow
6:21 AM 17.6 °F 6.4 °F 10.4 °F 73% 29.68 in 2.5 mi West 9.2 mph 17.3 mph 0.00 in Snow Light Snow
6:46 AM 17.6 °F 5.7 °F 10.4 °F 73% 29.68 in 9.0 mi WSW 10.4 mph - 0.00 in   Overcast
6:51 AM 17.1 °F 5.0 °F 10.9 °F 77% 29.75 in 9.0 mi WSW 10.4 mph 18.4 mph 0.00 in   Overcast
7:11 AM 17.6 °F 8.2 °F 10.4 °F 73% 29.69 in 2.5 mi Variable 6.9 mph - 0.00 in Snow Light Snow
7:20 AM 15.8 °F 2.7 °F 10.4 °F 79% 29.70 in 4.0 mi WNW 11.5 mph 17.3 mph 0.00 in Snow Light Snow
7:34 AM 15.8 °F 3.4 °F 10.4 °F 79% 29.70 in 4.0 mi WNW 10.4 mph 16.1 mph 0.00 in Snow Light Snow
7:51 AM 14.0 °F 5.1 °F 9.0 °F 80% 29.79 in 2.5 mi West 5.8 mph 17.3 mph 0.00 in Snow Light Snow
8:15 AM 12.2 °F 1.7 °F 6.8 °F 79% 29.73 in 3.0 mi Variable 6.9 mph 23.0 mph 0.00 in Snow Light Snow
8:34 AM 12.2 °F -1.8 °F 6.8 °F 79% 29.74 in 2.0 mi West 11.5 mph 17.3 mph 0.00 in Snow Light Snow
8:51 AM 12.0 °F 2.7 °F 6.1 °F 77% 29.82 in 2.0 mi Variable 5.8 mph - 0.00 in Snow Light Snow
8:58 AM 12.2 °F 6.1 °F 6.8 °F 79% 29.75 in 1.2 mi Variable 3.5 mph - 0.00 in Snow Light Snow
9:51 AM 12.0 °F -0.4 °F 5.0 °F 73% 29.83 in 2.0 mi West 9.2 mph 18.4 mph 0.00 in Snow Light Snow
10:09 AM 12.2 °F 6.1 °F 5.0 °F 73% 29.75 in 1.8 mi Variable 3.5 mph 16.1 mph 0.00 in Snow Light Snow
10:14 AM 12.2 °F -1.8 °F 5.0 °F 73% 29.75 in 3.0 mi WSW 11.5 mph 17.3 mph 0.00 in Snow Light Snow
10:51 AM 10.9 °F -0.8 °F 3.0 °F 70% 29.84 in 8.0 mi West 8.1 mph 18.4 mph 0.00 in   Overcast
11:51 AM 10.9 °F -2.6 °F 1.9 °F 67% 29.84 in 6.0 mi WSW 10.4 mph 21.9 mph 0.00 in   Haze
12:51 PM 10.9 °F -3.4 °F -0.0 °F 61% 29.85 in 7.0 mi West 11.5 mph 20.7 mph 0.00 in   Overcast
1:51 PM 10.9 °F -0.8 °F 1.0 °F 64% 29.85 in 4.0 mi West 8.1 mph 17.3 mph 0.00 in   Haze
2:04 PM 12.2 °F -1.0 °F 1.4 °F 62% 29.76 in 5.0 mi WNW 10.4 mph 18.4 mph 0.00 in Snow Light Snow
2:51 PM 12.9 °F -1.6 °F 1.9 °F 62% 29.83 in 6.0 mi WSW 12.7 mph 19.6 mph 0.00 in   Haze
2:57 PM 12.2 °F -0.2 °F 3.2 °F 67% 29.75 in 1.8 mi West 9.2 mph 20.7 mph 0.00 in Snow Light Snow
3:08 PM 12.2 °F -2.5 °F 1.4 °F 62% 29.75 in 3.0 mi WSW 12.7 mph 20.7 mph 0.00 in Snow Light Snow
3:30 PM 12.2 °F -1.0 °F 3.2 °F 67% 29.76 in 2.0 mi West 10.4 mph 19.6 mph 0.00 in Snow Light Snow
3:37 PM 12.2 °F -3.1 °F 3.2 °F 67% 29.76 in 1.8 mi West 13.8 mph 20.7 mph 0.00 in Snow Light Snow
3:51 PM 12.9 °F -0.2 °F 3.0 °F 65% 29.84 in 3.0 mi West 10.4 mph 16.1 mph 0.00 in Snow Light Snow
3:58 PM 12.2 °F -1.8 °F 3.2 °F 67% 29.75 in 6.0 mi West 11.5 mph 20.7 mph 0.00 in   Haze
4:51 PM 14.0 °F 2.0 °F 3.9 °F 64% 29.84 in 6.0 mi West 9.2 mph 21.9 mph 0.00 in   Haze
5:10 PM 14.0 °F 2.0 °F 3.2 °F 62% 29.76 in 8.0 mi West 9.2 mph 16.1 mph N/A   Overcast
5:39 PM 12.2 °F -0.2 °F 5.0 °F 73% 29.75 in 2.0 mi West 9.2 mph - 0.00 in Snow Light Snow
5:51 PM 12.9 °F 3.8 °F 6.1 °F 74% 29.85 in 3.0 mi Variable 5.8 mph 17.3 mph 0.00 in   Haze
6:05 PM 12.2 °F 0.7 °F 5.0 °F 73% 29.76 in 2.5 mi WNW 8.1 mph - 0.00 in Snow Light Snow
6:51 PM 12.9 °F 2.6 °F 7.0 °F 77% 29.86 in 2.5 mi Variable 6.9 mph - 0.00 in Snow Light Snow
7:04 PM 12.2 °F 2.9 °F 6.8 °F 79% 29.77 in 1.5 mi Variable 5.8 mph - 0.00 in Snow Light Snow
7:14 PM 12.2 °F 2.9 °F 8.6 °F 85% 29.78 in 2.0 mi WNW 5.8 mph - 0.00 in Snow Light Snow
7:23 PM 12.2 °F 1.7 °F 8.6 °F 85% 29.78 in 1.2 mi WNW 6.9 mph - 0.00 in Snow Light Snow
7:32 PM 12.2 °F 4.3 °F 8.6 °F 85% 29.78 in 3.0 mi WNW 4.6 mph - 0.00 in Snow Light Snow
7:51 PM 12.9 °F 2.6 °F 7.0 °F 77% 29.88 in 3.0 mi Variable 6.9 mph - 0.00 in Snow Light Snow
8:04 PM 12.2 °F 6.1 °F 8.6 °F 85% 29.79 in 2.5 mi West 3.5 mph - 0.00 in Snow Light Snow
8:14 PM 12.2 °F 4.3 °F 8.6 °F 85% 29.79 in 3.0 mi West 4.6 mph - 0.00 in Snow Light Snow
8:24 PM 12.2 °F 1.7 °F 6.8 °F 79% 29.80 in 2.0 mi Variable 6.9 mph - 0.00 in Snow Light Snow
8:51 PM 12.0 °F 4.1 °F 7.0 °F 80% 29.90 in 3.0 mi Variable 4.6 mph - 0.00 in Snow Light Snow
9:01 PM 12.2 °F 1.7 °F 6.8 °F 79% 29.81 in 2.5 mi Variable 6.9 mph - 0.00 in Snow Light Snow
9:22 PM 12.2 °F 2.9 °F 8.6 °F 85% 29.81 in 1.2 mi Variable 5.8 mph - 0.00 in Snow Light Snow
9:27 PM 12.2 °F 2.9 °F 8.6 °F 85% 29.81 in 0.8 mi WNW 5.8 mph - 0.00 in Snow Light Snow
9:49 PM 12.2 °F 4.3 °F 6.8 °F 79% 29.82 in 1.2 mi Variable 4.6 mph - 0.00 in Snow Light Snow
9:51 PM 12.0 °F 2.7 °F 8.1 °F 84% 29.92 in 1.2 mi Variable 5.8 mph - 0.00 in Snow Light Snow
10:06 PM 10.4 °F 0.8 °F 6.8 °F 85% 29.82 in 2.0 mi WNW 5.8 mph - 0.00 in Snow Light Snow
10:20 PM 10.4 °F -1.5 °F 6.8 °F 85% 29.82 in 4.0 mi WNW 8.1 mph - 0.00 in   Haze
10:44 PM 10.4 °F 0.8 °F 3.2 °F 73% 29.82 in 8.0 mi Variable 5.8 mph - 0.00 in   Overcast
10:51 PM 10.9 °F 1.4 °F 3.9 °F 73% 29.92 in 10.0 mi Variable 5.8 mph - 0.00 in   Overcast
11:51 PM 10.9 °F 2.9 °F 3.9 °F 73% 29.93 in 6.0 mi Variable 4.6 mph - N/A   Haze